{"data":{"norad_id":58164,"epoch":"2026-09-20T13:09:14.462784Z","epoch_age_seconds":136268,"freshness":"FRESH","line1":"1 58164U 23166Q   26263.54808406  .00000117  00000+0  15539-4 0  9991","line2":"2 58164  53.1600  33.0567 0001093  84.9283 275.1843 15.31701299163033","mean_motion":15.31701299,"eccentricity":0.0001093,"inclination_deg":53.16,"raan_deg":33.0567,"arg_perigee_deg":84.9283,"mean_anomaly_deg":275.1843,"bstar":1.5539e-5,"rev_number":16303,"period_min":94.013108230706,"perigee_km":469.98754114464,"apogee_km":471.48470480932,"semimajor_km":6848.873122977,"source":"CELESTRAK","updated_at":"2026-09-21T09:00:33.823791Z"}}